EZY375K EGBB-EGAA

Flight info

Callsign EZY375K
Flight time 0h 43m
Altitude 24000
Route LUVUM DCT NANTI L8 TADAL/N0371F280 UL8 BILVO UP6 TUPEM DCT REMSI DCT UVPOK M147 ROBOP M146 IPSET P6 BELZU
Aircraft A20N/M-SDE2E3FGHIJ1RWXYZ/LB1

Departure

Time 2026-05-05 16:40
Airport Birmingham Airport (EGBB)

Arrival

Time 2026-05-05 17:23
Airport Belfast International Airport (EGAA)
Time Latitude Longitude Altitude Speed Heading
2026-05-05 16:36 52.45316 -1.73950 323 ft 18 kts 214°
2026-05-05 16:36 52.45238 -1.73917 322 ft 10 kts 153°
2026-05-05 16:36 52.45171 -1.73851 321 ft 13 kts 148°
2026-05-05 16:37 52.45083 -1.73764 322 ft 16 kts 155°
2026-05-05 16:37 52.44989 -1.73682 322 ft 15 kts 141°
2026-05-05 16:37 52.44892 -1.73638 323 ft 14 kts 191°
2026-05-05 16:37 52.44789 -1.73698 321 ft 17 kts 204°
2026-05-05 16:38 52.44702 -1.73808 323 ft 8 kts 216°
2026-05-05 16:38 52.44691 -1.73834 326 ft 3 kts 242°
2026-05-05 16:38 52.44682 -1.73856 327 ft 3 kts 237°
2026-05-05 16:38 52.44643 -1.73956 325 ft 13 kts 256°
2026-05-05 16:39 52.44667 -1.73994 326 ft 0 kts 352°
2026-05-05 16:39 52.44676 -1.74002 324 ft 8 kts 335°
2026-05-05 16:39 52.44905 -1.74260 323 ft 75 kts 324°
2026-05-05 16:39 52.45510 -1.74940 322 ft 133 kts 325°
2026-05-05 16:40 52.46340 -1.75900 692 ft 145 kts 323°
2026-05-05 16:40 52.47185 -1.76918 1313 ft 157 kts 326°
2026-05-05 16:40 52.48091 -1.77946 1965 ft 159 kts 327°
2026-05-05 16:40 52.49083 -1.78873 2449 ft 172 kts 341°
2026-05-05 16:41 52.50327 -1.79147 2816 ft 192 kts
2026-05-05 16:41 52.51740 -1.78818 3255 ft 216 kts
2026-05-05 16:41 52.53308 -1.78454 3853 ft 239 kts
2026-05-05 16:41 52.55027 -1.78084 4525 ft 258 kts
2026-05-05 16:42 52.56833 -1.77711 5386 ft 266 kts
2026-05-05 16:42 52.58686 -1.77330 5806 ft 270 kts
2026-05-05 16:42 52.60553 -1.76947 5971 ft 271 kts
2026-05-05 16:42 52.62430 -1.76560 6171 ft 274 kts
2026-05-05 16:43 52.64338 -1.76166 6919 ft 276 kts
2026-05-05 16:43 52.66240 -1.75775 7977 ft 277 kts
2026-05-05 16:43 52.68174 -1.75380 8935 ft 283 kts
2026-05-05 16:43 52.70146 -1.75168 9869 ft 286 kts 352°
2026-05-05 16:44 52.72051 -1.76175 10540 ft 297 kts 328°
2026-05-05 16:44 52.73682 -1.78444 10878 ft 319 kts 311°
2026-05-05 16:44 52.75162 -1.81302 11348 ft 335 kts 308°
2026-05-05 16:44 52.76637 -1.84331 12194 ft 339 kts 308°
2026-05-05 16:45 52.78136 -1.87369 13048 ft 344 kts 308°
2026-05-05 16:45 52.79684 -1.90430 13890 ft 349 kts 309°
2026-05-05 16:45 52.81264 -1.93503 14635 ft 353 kts 309°
2026-05-05 16:45 52.82871 -1.96601 15369 ft 357 kts 309°
2026-05-05 16:46 52.84501 -1.99738 16121 ft 362 kts 309°
2026-05-05 16:46 52.86151 -2.02912 16851 ft 366 kts 309°
2026-05-05 16:46 52.87818 -2.06124 17580 ft 370 kts 309°
2026-05-05 16:46 52.89503 -2.09377 18274 ft 375 kts 309°
2026-05-05 16:47 52.91207 -2.12669 18932 ft 378 kts 309°
2026-05-05 16:47 52.92925 -2.15997 19552 ft 382 kts 309°
2026-05-05 16:47 52.94657 -2.19357 20171 ft 385 kts 309°
2026-05-05 16:47 52.96408 -2.22757 20775 ft 390 kts 309°
2026-05-05 16:48 52.98176 -2.26196 21388 ft 393 kts 309°
2026-05-05 16:48 52.99956 -2.29665 21994 ft 397 kts 309°
2026-05-05 16:48 53.01756 -2.33176 22562 ft 402 kts 309°
2026-05-05 16:48 53.03580 -2.36739 23132 ft 406 kts 310°
2026-05-05 16:49 53.05417 -2.40334 23666 ft 411 kts 310°
2026-05-05 16:49 53.07271 -2.43968 23923 ft 414 kts 310°
2026-05-05 16:49 53.09139 -2.47632 24006 ft 414 kts 310°
2026-05-05 16:49 53.11004 -2.51295 24030 ft 415 kts 311°
2026-05-05 16:50 53.12893 -2.54913 24023 ft 414 kts 315°
2026-05-05 16:50 53.15018 -2.58140 24025 ft 413 kts 322°
2026-05-05 16:50 53.17339 -2.60938 24024 ft 413 kts 326°
2026-05-05 16:50 53.19761 -2.63526 24025 ft 412 kts 332°
2026-05-05 16:51 53.22250 -2.65897 24024 ft 412 kts 331°
2026-05-05 16:51 53.24726 -2.68281 24023 ft 411 kts 331°
2026-05-05 16:51 53.27203 -2.70675 24019 ft 412 kts 331°
2026-05-05 16:51 53.29679 -2.73071 24018 ft 412 kts 331°
2026-05-05 16:52 53.32159 -2.75470 24022 ft 411 kts 331°
2026-05-05 16:52 53.34634 -2.77867 24021 ft 411 kts 331°
2026-05-05 16:52 53.37107 -2.80263 24019 ft 411 kts 331°
2026-05-05 16:52 53.39584 -2.82666 24022 ft 411 kts 331°
2026-05-05 16:53 53.42056 -2.85065 24016 ft 411 kts 331°
2026-05-05 16:53 53.44527 -2.87467 24024 ft 411 kts 331°
2026-05-05 16:53 53.46997 -2.89871 24019 ft 411 kts 331°
2026-05-05 16:53 53.49420 -2.92421 24045 ft 411 kts 328°
2026-05-05 16:54 53.51812 -2.95057 24047 ft 411 kts 328°
2026-05-05 16:54 53.54204 -2.97682 24047 ft 410 kts 328°
2026-05-05 16:54 53.56592 -3.00305 24047 ft 410 kts 328°
2026-05-05 16:54 53.58980 -3.02933 24026 ft 410 kts 328°
2026-05-05 16:55 53.61369 -3.05565 24027 ft 410 kts 328°
2026-05-05 16:55 53.63752 -3.08192 24022 ft 410 kts 328°
2026-05-05 16:55 53.66139 -3.10832 24021 ft 410 kts 328°
2026-05-05 16:55 53.68520 -3.13469 24024 ft 410 kts 328°
2026-05-05 16:56 53.70875 -3.16179 24020 ft 409 kts 323°
2026-05-05 16:56 53.72982 -3.19411 24022 ft 411 kts 314°
2026-05-05 16:56 53.74765 -3.23175 24020 ft 412 kts 305°
2026-05-05 16:56 53.76267 -3.27300 24024 ft 412 kts 302°
2026-05-05 16:57 53.77756 -3.31428 24028 ft 411 kts 302°
2026-05-05 16:57 53.79250 -3.35551 24024 ft 410 kts 302°
2026-05-05 16:57 53.80639 -3.39393 24024 ft 411 kts 302°
2026-05-05 16:57 53.82127 -3.43526 24025 ft 411 kts 302°
2026-05-05 16:58 53.83609 -3.47653 24029 ft 410 kts 302°
2026-05-05 16:58 53.85089 -3.51783 24028 ft 410 kts 302°
2026-05-05 16:58 53.86565 -3.55911 24029 ft 410 kts 302°
2026-05-05 16:58 53.88040 -3.60045 24030 ft 410 kts 302°
2026-05-05 16:59 53.89512 -3.64176 24032 ft 410 kts 302°
2026-05-05 16:59 53.90982 -3.68308 24030 ft 409 kts 302°
2026-05-05 16:59 53.92452 -3.72445 24023 ft 409 kts 302°
2026-05-05 16:59 53.93919 -3.76580 24025 ft 409 kts 302°
2026-05-05 17:00 53.95226 -3.80874 24022 ft 410 kts 294°
2026-05-05 17:00 53.96164 -3.85459 24025 ft 412 kts 286°
2026-05-05 17:00 53.96771 -3.90209 24024 ft 412 kts 285°
2026-05-05 17:00 53.97799 -3.94729 24024 ft 410 kts 300°
2026-05-05 17:01 53.99288 -3.98852 24027 ft 409 kts 304°
2026-05-05 17:01 54.00858 -4.02879 24031 ft 409 kts 305°
2026-05-05 17:01 54.02424 -4.06911 24017 ft 409 kts 304°
2026-05-05 17:01 54.03969 -4.10982 24029 ft 409 kts 304°
2026-05-05 17:02 54.05487 -4.15068 24033 ft 409 kts 303°
2026-05-05 17:02 54.06996 -4.19177 24036 ft 409 kts 303°
2026-05-05 17:02 54.08497 -4.23286 24039 ft 409 kts 303°
2026-05-05 17:02 54.09992 -4.27393 24042 ft 408 kts 303°
2026-05-05 17:03 54.11487 -4.31509 24040 ft 408 kts 303°
2026-05-05 17:03 54.12980 -4.35627 24044 ft 408 kts 303°
2026-05-05 17:03 54.14470 -4.39741 24043 ft 408 kts 303°
2026-05-05 17:03 54.15957 -4.43858 24051 ft 407 kts 303°
2026-05-05 17:04 54.17440 -4.47966 24045 ft 407 kts 303°
2026-05-05 17:04 54.18926 -4.52087 24049 ft 407 kts 303°
2026-05-05 17:04 54.20410 -4.56210 23960 ft 407 kts 303°
2026-05-05 17:04 54.21886 -4.60322 23746 ft 406 kts 303°
2026-05-05 17:05 54.23357 -4.64428 23576 ft 404 kts 302°
2026-05-05 17:05 54.24822 -4.68527 23375 ft 403 kts 302°
2026-05-05 17:05 54.26280 -4.72611 23138 ft 402 kts 302°
2026-05-05 17:05 54.27714 -4.76634 22648 ft 401 kts 302°
2026-05-05 17:06 54.29174 -4.80738 22106 ft 396 kts 302°
2026-05-05 17:06 54.30595 -4.84738 21585 ft 390 kts 302°
2026-05-05 17:06 54.31976 -4.88631 21077 ft 385 kts 302°
2026-05-05 17:06 54.33285 -4.92593 20574 ft 380 kts 294°
2026-05-05 17:07 54.34026 -4.96963 20065 ft 376 kts 283°
2026-05-05 17:07 54.34557 -5.01337 19576 ft 375 kts 282°
2026-05-05 17:07 54.35082 -5.05715 19104 ft 375 kts 282°
2026-05-05 17:07 54.35596 -5.10022 18635 ft 372 kts 282°
2026-05-05 17:08 54.36115 -5.14399 18138 ft 367 kts 282°
2026-05-05 17:08 54.36619 -5.18665 17589 ft 363 kts 282°
2026-05-05 17:08 54.37116 -5.22887 17081 ft 361 kts 282°
2026-05-05 17:08 54.37611 -5.27112 16407 ft 362 kts 282°
2026-05-05 17:09 54.38112 -5.31397 15432 ft 370 kts 282°
2026-05-05 17:09 54.38618 -5.35745 14733 ft 371 kts 282°
2026-05-05 17:09 54.39118 -5.40050 14212 ft 365 kts 282°
2026-05-05 17:09 54.39608 -5.44294 13669 ft 361 kts 281°
2026-05-05 17:10 54.40084 -5.48431 13148 ft 355 kts 281°
2026-05-05 17:10 54.40558 -5.52557 12639 ft 350 kts 281°
2026-05-05 17:10 54.41030 -5.56678 12134 ft 344 kts 281°
2026-05-05 17:10 54.41486 -5.60684 11638 ft 340 kts 281°
2026-05-05 17:11 54.41930 -5.64582 11157 ft 335 kts 281°
2026-05-05 17:11 54.42364 -5.68410 10685 ft 331 kts 281°
2026-05-05 17:11 54.42803 -5.72295 10401 ft 321 kts 281°
2026-05-05 17:11 54.43216 -5.75971 10274 ft 307 kts 281°
2026-05-05 17:12 54.43612 -5.79492 10155 ft 293 kts 281°
2026-05-05 17:12 54.43989 -5.82857 9987 ft 283 kts 281°
2026-05-05 17:12 54.44351 -5.86099 9648 ft 278 kts 281°
2026-05-05 17:12 54.44717 -5.89381 9292 ft 274 kts 281°
2026-05-05 17:13 54.45072 -5.92572 8921 ft 270 kts 281°
2026-05-05 17:13 54.45417 -5.95684 8568 ft 267 kts 281°
2026-05-05 17:13 54.45762 -5.98803 8215 ft 264 kts 281°
2026-05-05 17:13 54.46104 -6.01892 7867 ft 262 kts 281°
2026-05-05 17:14 54.46440 -6.04952 7518 ft 260 kts 281°
2026-05-05 17:14 54.46768 -6.07954 7366 ft 250 kts 281°
2026-05-05 17:14 54.47082 -6.10819 7272 ft 238 kts 281°
2026-05-05 17:14 54.47381 -6.13562 7166 ft 228 kts 281°
2026-05-05 17:15 54.47669 -6.16198 6939 ft 221 kts 281°
2026-05-05 17:15 54.47950 -6.18771 6797 ft 222 kts 281°
2026-05-05 17:15 54.48236 -6.21399 6564 ft 224 kts 281°
2026-05-05 17:15 54.48519 -6.24028 6270 ft 224 kts 281°
2026-05-05 17:16 54.48804 -6.26659 5988 ft 223 kts 281°
2026-05-05 17:16 54.49087 -6.29276 5710 ft 222 kts 281°
2026-05-05 17:16 54.49365 -6.31869 5455 ft 219 kts 281°
2026-05-05 17:16 54.49640 -6.34422 5212 ft 214 kts 281°
2026-05-05 17:17 54.49908 -6.36939 4886 ft 215 kts 282°
2026-05-05 17:17 54.50178 -6.39459 4638 ft 213 kts 282°
2026-05-05 17:17 54.50467 -6.41944 4282 ft 211 kts 290°
2026-05-05 17:17 54.51274 -6.43980 3936 ft 208 kts 323°
2026-05-05 17:18 54.52525 -6.45088 3808 ft 197 kts 335°
2026-05-05 17:18 54.53738 -6.46043 3696 ft 188 kts 334°
2026-05-05 17:18 54.54904 -6.46985 3501 ft 184 kts 334°
2026-05-05 17:18 54.56065 -6.47925 3214 ft 185 kts 336°
2026-05-05 17:19 54.57318 -6.48332 2919 ft 186 kts
2026-05-05 17:19 54.58479 -6.47493 2813 ft 178 kts 36°
2026-05-05 17:19 54.59207 -6.45812 2569 ft 176 kts 63°
2026-05-05 17:19 54.59726 -6.43812 2505 ft 186 kts 62°
2026-05-05 17:20 54.60267 -6.41804 2500 ft 184 kts 62°
2026-05-05 17:20 54.60814 -6.39792 2468 ft 187 kts 61°
2026-05-05 17:20 54.61357 -6.37802 2245 ft 180 kts 61°
2026-05-05 17:20 54.61882 -6.35869 1945 ft 176 kts 62°
2026-05-05 17:21 54.62395 -6.33980 1637 ft 170 kts 61°
2026-05-05 17:21 54.62886 -6.32168 1267 ft 164 kts 61°
2026-05-05 17:21 54.63358 -6.30413 925 ft 157 kts 60°
2026-05-05 17:22 54.64206 -6.27341 615 ft 124 kts 58°
2026-05-05 17:22 54.64477 -6.26412 597 ft 135 kts 57°
2026-05-05 17:22 54.64867 -6.24955 486 ft 131 kts 62°
2026-05-05 17:22 54.65223 -6.23540 326 ft 129 kts 60°
2026-05-05 17:23 54.65591 -6.22188 272 ft 110 kts 61°
2026-05-05 17:23 54.65819 -6.21305 272 ft 50 kts 65°
2026-05-05 17:23 54.65880 -6.21063 272 ft 4 kts 65°
2026-05-05 17:23 54.65930 -6.20894 272 ft 23 kts 62°
2026-05-05 17:24 54.66003 -6.20642 272 ft 18 kts 71°
2026-05-05 17:24 54.66054 -6.20488 272 ft 3 kts 101°
2026-05-05 17:24 54.66029 -6.20540 272 ft 24 kts 237°
2026-05-05 17:24 54.65932 -6.20860 272 ft 32 kts 246°
2026-05-05 17:25 54.65859 -6.21220 272 ft 28 kts 272°
2026-05-05 17:25 54.65933 -6.21363 272 ft 20 kts 339°
2026-05-05 17:25 54.66041 -6.21245 272 ft 13 kts 17°
2026-05-05 17:25 54.66082 -6.21274 272 ft 4 kts 264°
2026-05-05 17:26 54.66077 -6.21308 272 ft 0 kts 246°